• In Hungary
  • List of Countries
  • For 7 days
  • Water Temperature
  • Satellite Maps
  • Weather Map
  • News
  • Weather Widgets
  • user-avatar
    Login

    Hourly Weather Solinki

    Today, 22 September, Saturday

    Time Temperature Precipitation Wind Pressure Humidity
    00:00 +20°C° 0 mm 5 mps 743 mmHg 61%
    01:00 +20°C° 0 mm 5 mps 743 mmHg 62%
    02:00 +19°C° 0 mm 5 mps 743 mmHg 63%
    03:00 +19°C° 0 mm 5 mps 743 mmHg 65%
    04:00 +19°C° 0 mm 6 mps 744 mmHg 68%
    05:00 +17°C° 0 mm 6 mps 744 mmHg 71%
    06:00 +16°C° 0.3 mm 6 mps 745 mmHg 74%
    07:00 +15°C° 0.3 mm 6 mps 746 mmHg 78%
    08:00 +14°C° 0.3 mm 6 mps 747 mmHg 82%
    09:00 +14°C° 0.1 mm 6 mps 747 mmHg 78%
    10:00 +14°C° 0.1 mm 5 mps 748 mmHg 74%
    11:00 +14°C° 0.1 mm 5 mps 749 mmHg 70%
    12:00 +14°C° 0 mm 5 mps 749 mmHg 66%
    13:00 +15°C° 0 mm 5 mps 749 mmHg 62%
    14:00 +15°C° 0 mm 5 mps 749 mmHg 57%
    15:00 +15°C° 0.2 mm 5 mps 749 mmHg 57%
    16:00 +15°C° 0.2 mm 5 mps 748 mmHg 57%
    17:00 +15°C° 0.2 mm 5 mps 748 mmHg 58%
    18:00 +14°C° 0.1 mm 4 mps 748 mmHg 62%
    19:00 +13°C° 0.1 mm 3 mps 748 mmHg 66%
    20:00 +12°C° 0.1 mm 3 mps 748 mmHg 71%
    21:00 +11°C° 0 mm 3 mps 748 mmHg 72%
    22:00 +10°C° 0 mm 3 mps 749 mmHg 74%
    23:00 +10°C° 0 mm 3 mps 749 mmHg 75%

    Tomorrow, 23 September, Sunday

    Time Temperature Precipitation Wind Pressure Humidity
    00:00 +10°C° 0 mm 3 mps 749 mmHg 76%
    01:00 +9°C° 0 mm 3 mps 749 mmHg 76%
    02:00 +9°C° 0 mm 3 mps 749 mmHg 77%
    03:00 +9°C° 0 mm 3 mps 749 mmHg 77%
    04:00 +9°C° 0 mm 3 mps 748 mmHg 77%
    05:00 +9°C° 0 mm 3 mps 748 mmHg 77%
    06:00 +8°C° 0 mm 4 mps 748 mmHg 74%
    07:00 +10°C° 0 mm 4 mps 748 mmHg 72%
    08:00 +11°C° 0 mm 4 mps 748 mmHg 69%
    09:00 +12°C° 0 mm 4 mps 748 mmHg 64%
    10:00 +14°C° 0 mm 5 mps 748 mmHg 60%
    11:00 +15°C° 0 mm 5 mps 748 mmHg 55%
    12:00 +15°C° 0.1 mm 5 mps 747 mmHg 57%
    13:00 +15°C° 0.1 mm 5 mps 747 mmHg 60%
    14:00 +15°C° 0.1 mm 5 mps 747 mmHg 62%
    15:00 +14°C° 0 mm 5 mps 747 mmHg 63%
    16:00 +14°C° 0 mm 4 mps 746 mmHg 64%
    17:00 +14°C° 0 mm 4 mps 746 mmHg 66%
    18:00 +13°C° 0 mm 3 mps 745 mmHg 70%
    19:00 +13°C° 0 mm 2 mps 745 mmHg 75%
    20:00 +12°C° 0 mm 2 mps 745 mmHg 79%
    21:00 +12°C° 0.6 mm 2 mps 744 mmHg 82%
    22:00 +12°C° 0.6 mm 2 mps 743 mmHg 85%
    23:00 +11°C° 0.6 mm 3 mps 742 mmHg 88%

    Day after tomorrow, 24 September, Monday

    Time Temperature Precipitation Wind Pressure Humidity
    00:00 +11°C° 2.1 mm 3 mps 741 mmHg 89%
    01:00 +11°C° 2.1 mm 4 mps 739 mmHg 91%
    02:00 +10°C° 2.1 mm 5 mps 738 mmHg 93%
    03:00 +10°C° 5.4 mm 5 mps 736 mmHg 93%
    04:00 +10°C° 5.4 mm 5 mps 734 mmHg 93%
    05:00 +10°C° 5.4 mm 5 mps 733 mmHg 94%
    06:00 +10°C° 2 mm 6 mps 733 mmHg 92%
    07:00 +10°C° 2 mm 8 mps 733 mmHg 91%
    08:00 +10°C° 2 mm 9 mps 733 mmHg 89%
    09:00 +9°C° 1.3 mm 10 mps 734 mmHg 87%
    10:00 +8°C° 1.3 mm 10 mps 736 mmHg 85%
    11:00 +7°C° 1.3 mm 11 mps 738 mmHg 83%
    12:00 +8°C° 0.3 mm 11 mps 739 mmHg 79%
    13:00 +9°C° 0.3 mm 10 mps 740 mmHg 75%
    14:00 +11°C° 0.3 mm 10 mps 742 mmHg 72%
    15:00 +11°C° 0.1 mm 9 mps 743 mmHg 69%
    16:00 +10°C° 0.1 mm 9 mps 743 mmHg 67%
    17:00 +10°C° 0.1 mm 8 mps 744 mmHg 65%
    18:00 +10°C° 0 mm 8 mps 744 mmHg 69%
    19:00 +9°C° 0 mm 8 mps 745 mmHg 73%
    20:00 +7°C° 0 mm 9 mps 746 mmHg 76%
    21:00 +7°C° 0.5 mm 9 mps 746 mmHg 76%
    22:00 +6°C° 0.5 mm 9 mps 747 mmHg 77%
    23:00 +6°C° 0.5 mm 9 mps 748 mmHg 77%

    25 September, Tuesday

    Time Temperature Precipitation Wind Pressure Humidity
    00:00 +6°C° 0.3 mm 9 mps 749 mmHg 76%
    01:00 +5°C° 0.3 mm 8 mps 750 mmHg 76%
    02:00 +5°C° 0.3 mm 7 mps 751 mmHg 75%
    03:00 +4°C° 0 mm 7 mps 751 mmHg 75%
    04:00 +4°C° 0 mm 7 mps 752 mmHg 75%
    05:00 +4°C° 0 mm 6 mps 752 mmHg 75%
    06:00 +4°C° 0 mm 7 mps 753 mmHg 74%
    07:00 +4°C° 0 mm 7 mps 754 mmHg 72%
    08:00 +5°C° 0 mm 7 mps 754 mmHg 71%
    09:00 +6°C° 0.1 mm 7 mps 755 mmHg 66%
    10:00 +7°C° 0.1 mm 8 mps 755 mmHg 61%
    11:00 +9°C° 0.1 mm 8 mps 755 mmHg 56%
    12:00 +10°C° 0.2 mm 8 mps 756 mmHg 53%
    13:00 +10°C° 0.2 mm 8 mps 756 mmHg 51%
    14:00 +11°C° 0.2 mm 9 mps 756 mmHg 49%
    15:00 +10°C° 0 mm 7 mps 756 mmHg 50%
    16:00 +10°C° 0 mm 6 mps 756 mmHg 50%
    17:00 +10°C° 0 mm 5 mps 756 mmHg 51%
    18:00 +9°C° 0 mm 5 mps 756 mmHg 54%
    19:00 +9°C° 0 mm 5 mps 756 mmHg 57%
    20:00 +8°C° 0 mm 5 mps 756 mmHg 61%
    21:00 +8°C° 0 mm 6 mps 756 mmHg 61%
    22:00 +8°C° 0 mm 6 mps 756 mmHg 62%
    23:00 +8°C° 0 mm 7 mps 756 mmHg 63%

    26 September, Wednesday

    Time Temperature Precipitation Wind Pressure Humidity
    00:00 +8°C° 0.2 mm 7 mps 755 mmHg 66%
    01:00 +6°C° 0.2 mm 8 mps 754 mmHg 70%
    02:00 +6°C° 0.2 mm 9 mps 754 mmHg 74%
    03:00 +6°C° 0.6 mm 9 mps 753 mmHg 77%
    04:00 +6°C° 0.6 mm 9 mps 753 mmHg 81%
    05:00 +6°C° 0.6 mm 10 mps 752 mmHg 84%
    06:00 +7°C° 0.9 mm 9 mps 753 mmHg 82%
    07:00 +7°C° 0.9 mm 8 mps 753 mmHg 80%
    08:00 +8°C° 0.9 mm 7 mps 753 mmHg 78%
    09:00 +9°C° 0 mm 7 mps 754 mmHg 71%
    10:00 +10°C° 0 mm 7 mps 754 mmHg 64%
    11:00 +11°C° 0 mm 8 mps 755 mmHg 57%
    12:00 +12°C° 0 mm 7 mps 755 mmHg 54%
    13:00 +12°C° 0 mm 7 mps 755 mmHg 51%
    14:00 +14°C° 0 mm 7 mps 755 mmHg 48%
    15:00 +13°C° 0 mm 5 mps 755 mmHg 51%
    16:00 +13°C° 0 mm 4 mps 756 mmHg 53%
    17:00 +13°C° 0 mm 3 mps 756 mmHg 56%
    18:00 +12°C° 0 mm 3 mps 756 mmHg 59%
    19:00 +12°C° 0 mm 2 mps 756 mmHg 63%
    20:00 +9°C° 0 mm 2 mps 757 mmHg 67%
    21:00 +9°C° 0 mm 2 mps 757 mmHg 71%
    22:00 +10°C° 0 mm 2 mps 757 mmHg 75%
    23:00 +10°C° 0 mm 2 mps 757 mmHg 79%

    27 September, Thursday

    Time Temperature Precipitation Wind Pressure Humidity
    00:00 +10°C° 0 mm 2 mps 756 mmHg 83%
    01:00 +9°C° 0 mm 3 mps 756 mmHg 87%
    02:00 +9°C° 0 mm 3 mps 756 mmHg 90%
    03:00 +9°C° 0 mm 3 mps 756 mmHg 89%
    04:00 +9°C° 0 mm 3 mps 755 mmHg 87%
    05:00 +8°C° 0 mm 4 mps 755 mmHg 85%
    06:00 +10°C° 0.1 mm 4 mps 755 mmHg 84%
    07:00 +10°C° 0.1 mm 4 mps 755 mmHg 82%
    08:00 +9°C° 0.1 mm 5 mps 755 mmHg 80%
    09:00 +10°C° 0 mm 5 mps 754 mmHg 76%
    10:00 +12°C° 0 mm 5 mps 754 mmHg 73%
    11:00 +11°C° 0 mm 6 mps 754 mmHg 69%
    12:00 +14°C° 0 mm 6 mps 753 mmHg 64%
    13:00 +15°C° 0 mm 6 mps 753 mmHg 59%
    14:00 +16°C° 0 mm 6 mps 752 mmHg 54%
    15:00 +16°C° 0 mm 6 mps 751 mmHg 55%
    16:00 +16°C° 0 mm 5 mps 751 mmHg 55%
    17:00 +16°C° 0 mm 5 mps 750 mmHg 56%
    18:00 +15°C° 0 mm 5 mps 750 mmHg 58%
    19:00 +14°C° 0 mm 5 mps 749 mmHg 60%
    20:00 +12°C° 0 mm 4 mps 749 mmHg 62%
    21:00 +12°C° 0 mm 5 mps 749 mmHg 61%
    22:00 +12°C° 0 mm 5 mps 748 mmHg 61%
    23:00 +12°C° 0 mm 5 mps 748 mmHg 60%
    Show more